Location: L�Ave Maria
(50.7161°N, 1.5911°E)
Time: 00:02:21
(UTC+00:00)

SPOT 1/Viking Rocket - Pass Details

Date: 10 July 2020
Orbit: 778 x 793 km, 98.5° (Epoch: 03 August)

Event Time Altitude Azimuth Distance (km) Brightness Sun altitude
Exits shadow 20:36:43 - 151° (SSE) 2,833 5.8 -4.7°
Reaches altitude 10° 20:37:59 10° 149° (SSE) 2,333 5.4 -4.8°
Maximum altitude 20:43:03 61° 70° (ENE) 890 3.8 -5.4°
Drops below altitude 10° 20:48:10 10° 351° (N) 2,358 7.0 -5.9°
Sets 20:50:32 0° 348° (NNW) 3,294 7.9 -6.2°
